Location: Beadle
(51.4667°N, 109.0000°W)
Time: 04:08:56
(UTC+00:00)

DIWATA 2B (PO-101) - Pass Details

Date: 01 July 2022
Orbit: 583 x 599 km, 98.0° (Epoch: 13 August)

Event Time Altitude Azimuth Distance (km) Brightness Sun altitude
Exits shadow 09:42:37 11° 200° (SSW) 1,841 ? -9.1°
Maximum altitude 09:46:11 33° 264° (W) 1,010 ? -8.8°
Drops below altitude 10° 09:50:03 10° 329° (NNW) 1,952 ? -8.5°
Sets 09:52:24 0° 339° (NNW) 2,859 ? -8.3°
